Dewpoint
53 54 54 54 55 54 53 52 53 53 54 56 53 52 53 53 54 50 46 49 45 42 40 43 37 35 38 34 30 30 31 32 30 34 33 30 30 32 29 32 31 26 26 25 27 26 22 37 36 29 33 41 43 46
53 54 54 54 54 54 54 52 52 52 54 56 53 52 53 53 53 52 46 48 51 43 39 45 43 41 39 37 35 36 32 34 33 36 36 34 31 33 28 25 33 30 33 32 30 31 34 38 38 40 39 40 43 44
53 53 54 54 54 54 54 53 52 53 54 56 51 52 52 53 53 51 45 48 47 46 37 41 39 40 37 37 37 36 38 36 36 37 39 35 30 35 31 31 31 34 35 34 34 37 39 39 40 40 41 42 44 44
53 53 53 54 54 54 54 53 52 52 54 55 50 51 52 53 52 51 42 45 49 47 39 38 46 43 36 39 40 39 38 39 38 34 31 35 32 35 33 34 33 35 34 32 32 33 37 38 40 40 41 43 44 44
53 53 53 53 54 54 53 53 52 53 55 52 51 51 52 52 52 48 45 46 48 46 42 44 44 43 37 39 38 39 39 39 38 36 34 34 37 37 36 35 34 36 34 34 34 35 37 36 40 41 40 41 43 43
53 53 53 53 53 54 53 52 52 53 55 50 51 51 52 52 50 49 46 50 48 50 40 39 44 41 38 39 39 39 40 40 39 37 36 39 39 36 34 31 35 37 37 38 36 38 38 42 44 44 40 40 41 41
53 53 53 53 53 53 53 53 53 54 51 50 50 51 51 50 46 47 46 48 49 49 42 40 42 42 39 40 41 41 43 41 39 39 38 39 39 38 35 30 35 37 39 41 41 43 41 43 41 44 44 45 45 41
53 52 52 53 53 53 53 53 54 53 50 51 50 50 50 50 49 44 47 50 49 48 47 43 41 38 41 37 37 43 41 41 40 39 41 40 40 38 34 37 39 40 40 41 42 42 39 40 42 44 44 44 44 42
53 53 52 52 53 53 53 54 52 51 51 50 50 51 48 46 47 50 53 53 52 45 42 44 39 37 42 41 42 43 42 39 42 39 39 41 36 36 38 39 40 42 41 41 42 42 42 42 42 42 44 44 43 42
51 52 53 53 53 53 52 50 50 50 50 50 48 47 46 50 55 54 50 47 46 47 47 43 45 43 40 42 42 44 46 42 37 40 42 38 37 41 42 42 42 43 43 42 39 38 39 39 42 43 43 44 44 44
49 49 50 51 50 49 49 48 48 49 50 48 47 49 52 53 49 48 44 43 43 42 44 44 45 43 47 41 42 47 44 43 36 38 40 35 38 41 43 44 45 44 44 41 40 40 39 41 42 43 44 45 46 46
50 49 48 48 49 49 48 48 48 48 50 47 47 49 50 48 45 42 41 41 42 40 43 43 44 42 47 46 46 46 43 42 37 43 43 35 40 42 43 44 46 45 44 44 42 42 44 44 44 44 45 46 47 48
50 49 49 49 49 47 47 47 47 49 49 50 50 47 47 43 37 38 34 38 39 43 45 47 45 46 45 45 45 44 41 40 42 41 39 37 40 43 43 43 43 43 44 44 45 45 46 45 47 47 47 48 47 47
50 49 49 49 49 49 48 49 48 47 47 46 43 34 39 37 39 39 38 40 43 47 47 46 45 44 44 43 43 39 41 41 40 38 35 40 41 42 42 44 44 44 44 44 44 44 44 44 44 44 43 43 45 46
50 49 50 49 49 49 49 50 48 45 45 43 44 37 39 40 41 43 43 43 47 48 46 45 44 44 42 42 40 39 40 38 38 37 39 41 41 42 43 41 41 41 41 40 41 40 40 42 42 41 41 41 41 41
50 49 48 49 49 50 50 47 44 44 44 43 42 40 41 39 37 37 38 41 47 47 45 44 41 41 41 39 37 36 36 34 35 38 41 41 41 42 42 39 39 39 37 37 38 41 41 40 39 39 39 40 41 41
49 46 49 49 49 49 48 48 45 41 39 42 41 42 39 39 38 37 36 40 48 45 42 42 39 38 40 37 35 38 36 37 38 40 42 42 42 43 39 39 38 37 38 39 40 40 40 39 39 38 39 40 40 40
45 49 50 49 48 50 49 47 48 47 43 43 41 39 40 40 38 39 44 48 47 46 46 43 43 39 37 35 36 39 40 40 41 43 43 43 42 40 39 39 39 38 38 39 41 40 39 38 38 39 39 40 40 40
47 47 48 48 47 43 44 48 46 42 43 44 43 43 41 41 43 43 47 48 48 47 46 43 39 38 38 40 40 39 40 43 43 43 44 43 40 39 38 39 39 37 39 40 40 40 39 39 39 40 40 40 40 41
50 50 49 49 48 44 42 44 49 44 41 41 41 39 38 38 44 47 46 46 46 46 43 42 42 42 43 44 43 42 42 44 44 43 42 41 40 38 37 37 37 38 40 40 39 39 38 39 39 39 39 40 40 41
47 49 50 48 45 44 43 41 43 46 44 43 43 42 41 47 46 45 45 45 44 43 42 44 45 47 47 46 44 44 45 46 44 43 43 42 42 39 38 38 38 40 40 39 37 37 38 36 36 37 39 40 40 41
46 51 47 47 46 47 42 43 42 44 42 41 42 41 39 43 44 45 46 44 43 44 45 46 47 48 47 45 44 45 46 46 44 43 42 41 38 37 37 37 38 39 39 39 36 36 37 38 39 40 40 40 40 37
49 48 47 48 46 44 43 46 44 44 41 41 43 42 44 44 45 48 44 45 46 48 48 48 48 48 47 44 41 42 46 46 45 43 41 40 38 38 37 38 38 38 38 39 38 37 37 39 40 41 40 39 38 36
50 48 46 45 45 40 43 41 45 44 44 41 40 41 43 45 49 47 45 46 47 49 49 48 46 43 40 39 38 39 40 44 43 43 42 39 37 37 38 37 37 38 39 38 38 39 39 40 41 41 39 37 37 36
42 39 40 35 43 44 41 41 41 42 40 41 44 44 46 49 45 45 44 44 48 48 47 47 45 42 39 39 40 39 35 38 39 39 39 40 37 36 37 37 37 37 37 37 37 39 39 40 39 39 39 38 36 36
36 43 37 39 39 39 40 41 43 43 44 43 46 49 49 45 43 42 43 45 47 48 47 46 44 43 41 40 40 38 35 35 35 36 35 36 38 37 36 36 36 36 37 37 37 38 39 38 38 37 37 35 33 34
39 41 42 43 41 42 41 42 44 45 43 43 46 47 45 42 41 43 46 47 48 49 50 48 46 44 42 44 42 38 38 34 34 34 34 34 35 36 36 36 35 36 38 37 38 38 38 38 37 35 35 34 34 34
41 42 40 40 42 43 40 40 39 38 41 47 47 42 40 41 41 44 46 48 49 50 50 49 48 47 46 45 43 36 35 34 34 34 34 34 35 34 35 36 37 37 38 38 38 38 37 37 37 36 35 33 34 34
42 43 42 40 41 41 41 41 40 40 42 46 44 44 44 47 48 48 47 48 48 49 48 48 47 45 41 41 40 36 34 33 33 32 32 31 32 33 35 35 35 37 37 38 37 37 37 34 35 35 35 34 35 36
40 43 41 39 38 38 40 42 42 41 43 45 47 47 47 47 50 50 48 48 48 47 47 47 43 41 40 38 34 33 33 33 32 32 31 32 32 33 34 35 35 35 35 36 34 33 36 34 35 35 35 35 35 36
40 41 39 38 36 37 38 40 41 44 48 47 47 46 46 48 50 52 52 52 46 39 40 38 34 35 34 32 33 32 30 31 31 34 34 33 33 34 35 35 34 34 33 32 31 30 30 31 32 34 34 35 36 35
40 39 38 37 38 41 42 40 40 44 46 46 46 48 48 48 48 51 53 50 39 36 35 33 31 31 32 31 32 32 33 30 31 32 34 34 34 36 35 34 33 33 33 32 30 29 30 31 31 32 32 33 35 35
40 39 39 38 38 38 41 44 45 46 46 46 48 49 49 47 47 50 54 54 51 49 48 47 48 49 50 49 37 32 33 32 37 33 34 34 35 35 33 32 33 34 32 30 29 29 29 30 30 33 34 34 35 35
Lifted_Index
10 9 9 9 9 9 9 7 6 6 6 5 5 7 8 8 6 3 2 2 2 3 3 3 3 3 3 3 3 3 3 3 3 3 2 3 3 3 3 2 2 2 3 3 3 3 2 2 2 2 2 2 1 0
9 8 8 8 8 9 9 8 7 7 7 5 5 8 9 8 6 4 2 2 3 3 3 3 3 3 3 3 3 3 3 3 3 3 3 3 3 3 3 3 3 3 3 3 3 3 3 2 2 2 3 2 2 1
8 7 7 8 8 8 9 9 8 8 7 5 6 8 9 8 7 5 3 2 3 3 3 3 3 3 3 3 3 3 3 3 3 3 3 3 3 4 4 4 3 3 3 3 3 3 3 3 3 3 3 3 3 2
7 7 7 7 7 8 8 8 8 8 6 5 6 8 9 8 8 6 4 3 3 3 3 3 3 3 3 3 4 3 3 3 3 3 3 3 3 3 3 3 4 4 3 4 4 3 3 3 3 3 3 3 3 3
7 7 6 6 7 8 8 8 8 7 5 5 7 8 9 8 8 6 4 3 3 2 2 2 2 2 3 3 4 3 3 3 3 3 4 4 3 3 3 3 4 4 4 4 4 3 3 3 3 3 3 3 3 3
8 7 6 6 7 8 8 8 8 7 5 5 7 8 8 8 8 6 4 3 3 2 2 2 2 2 2 3 3 3 3 3 3 3 3 3 3 3 3 4 4 4 4 4 4 3 3 3 3 3 3 3 3 3
8 7 6 5 6 7 8 8 7 6 5 5 7 9 9 8 7 5 3 3 3 2 2 1 1 1 2 2 3 3 3 3 3 3 3 3 3 3 3 4 4 4 4 4 4 3 3 3 3 3 3 3 3 3
8 7 6 5 6 7 8 8 7 5 5 6 8 9 9 8 7 4 3 2 2 2 2 1 1 1 1 2 2 2 2 3 3 2 2 2 2 3 3 3 3 4 4 4 4 3 3 3 3 3 3 3 3 3
7 6 5 5 5 6 7 7 6 5 5 7 8 8 7 6 4 3 3 2 2 2 2 1 0 1 1 1 1 2 2 2 2 2 2 2 2 2 2 3 3 3 3 3 3 3 3 3 3 3 3 3 2 3
7 6 5 5 5 6 6 6 5 5 6 8 8 6 5 4 3 3 3 3 2 2 2 1 1 0 1 1 1 1 2 2 2 2 2 1 1 2 2 2 3 3 3 3 3 3 3 3 3 3 3 2 2 2
7 6 6 6 6 6 6 6 5 5 6 7 6 4 3 2 3 3 3 3 3 2 1 1 1 0 0 0 1 1 2 2 2 1 1 1 2 2 2 2 3 2 2 2 2 2 3 3 3 3 2 2 2 2
7 8 8 8 7 6 6 6 6 6 6 6 4 3 3 3 3 3 3 3 2 1 1 1 1 1 0 -0 0 1 1 1 2 2 2 2 2 2 2 2 3 2 2 2 2 2 2 2 2 2 2 2 2 2
6 8 9 8 8 7 7 8 8 7 6 5 4 4 3 3 3 3 3 3 1 0 -1 -0 0 0 0 -0 0 1 1 1 2 2 2 2 2 2 2 2 2 2 2 2 2 2 2 2 2 2 2 2 2 2
5 6 8 8 8 8 8 9 8 7 6 5 4 4 4 4 4 3 3 2 0 -1 -1 -1 -1 -0 -0 0 0 1 1 1 2 2 2 2 2 2 3 2 2 2 2 2 2 2 2 2 3 3 3 2 2 2
4 5 6 7 8 8 8 8 8 7 6 5 4 4 4 4 3 3 2 1 -0 -1 -1 -1 -1 -0 -0 0 0 1 1 1 2 2 2 2 3 3 3 2 2 3 3 2 3 3 3 4 4 4 4 4 4 4
4 4 4 6 7 7 7 7 7 7 7 6 4 4 3 3 2 2 1 0 -0 -1 -1 -1 -0 -0 0 0 1 1 1 2 2 2 2 3 3 3 2 3 3 3 3 3 4 5 5 5 5 5 5 5 5 5
3 3 4 5 6 6 6 6 6 6 6 5 5 4 3 3 2 1 1 -0 -1 -1 -1 -0 0 0 1 1 1 1 2 2 2 2 2 3 3 3 3 3 3 4 4 5 5 5 5 5 5 5 5 5 5 5
3 3 4 4 5 6 5 5 5 5 4 4 4 4 3 3 2 1 0 -0 -1 -1 -0 0 0 0 1 1 1 1 1 1 2 2 3 3 3 3 4 4 5 5 5 5 5 5 5 5 5 5 5 5 5 4
4 4 5 5 6 5 4 4 4 4 4 4 3 3 3 2 2 1 0 -0 -1 -0 0 0 0 1 1 1 1 1 1 1 2 2 3 3 3 4 4 5 6 6 5 5 5 5 5 5 6 5 5 4 4 4
4 5 6 6 6 5 4 4 4 4 3 3 3 2 2 2 1 1 0 -0 -0 -0 0 0 0 1 1 1 1 1 1 2 2 3 3 3 3 4 5 5 6 5 5 5 5 5 6 6 5 5 4 4 3 3
5 5 6 7 6 5 5 4 4 4 3 3 2 2 1 1 1 0 0 0 0 0 1 1 1 1 1 1 2 2 2 2 3 3 3 3 3 4 5 5 5 5 5 5 6 6 6 6 5 4 4 3 3 3
5 5 6 6 6 5 5 4 4 3 3 2 2 1 1 1 1 1 1 1 1 1 1 1 1 1 1 2 2 2 3 3 3 3 3 3 3 4 5 5 5 5 5 6 7 7 6 6 5 4 4 3 3 3
4 5 5 5 5 4 4 4 3 3 2 2 2 1 1 1 1 1 1 1 1 1 1 1 1 1 2 2 3 3 3 3 3 2 2 3 3 5 5 5 5 6 6 6 7 7 6 5 5 4 4 4 4 3
4 4 4 4 4 3 3 3 2 2 2 2 1 1 1 1 1 1 1 1 1 1 1 1 1 2 2 3 3 3 3 3 3 3 2 3 3 5 5 5 5 6 6 6 6 6 6 5 5 4 4 4 4 4
4 4 4 3 3 3 3 2 1 1 1 1 1 1 1 1 1 1 1 1 1 1 1 1 1 2 3 3 3 3 3 4 4 4 3 3 3 4 5 5 5 6 6 6 6 6 6 5 5 4 4 4 5 5
4 4 3 3 3 3 2 1 1 1 1 1 1 1 0 0 1 1 1 1 1 1 1 1 2 2 3 3 3 4 4 5 6 5 5 4 4 4 5 5 5 5 6 6 6 6 5 5 5 5 5 5 5 5
4 4 3 3 3 2 2 1 1 1 1 1 1 1 0 0 0 1 1 1 1 1 1 1 2 2 2 3 3 4 6 6 7 7 6 6 6 5 5 5 5 5 5 5 5 5 5 5 5 5 5 6 6 6
4 4 3 3 3 2 2 2 1 1 1 1 0 0 0 0 0 0 1 1 1 1 1 1 2 2 2 3 3 4 5 6 7 7 7 6 6 6 6 5 5 5 5 5 5 5 5 5 5 5 6 6 6 6
4 4 3 3 3 2 2 1 1 1 1 1 0 0 0 0 0 0 0 1 1 1 1 2 2 2 2 2 3 3 4 5 5 6 6 6 6 6 6 5 5 5 5 5 5 5 5 5 6 6 6 6 6 6
4 4 4 3 3 3 2 2 1 1 1 1 0 0 0 0 0 0 0 1 1 1 1 2 2 2 2 2 2 2 3 4 5 6 6 5 5 6 6 5 5 5 5 5 5 5 5 6 6 6 6 6 6 6
4 4 4 4 4 3 3 2 2 1 1 1 0 0 0 0 0 0 0 1 1 2 2 2 2 2 2 2 3 3 4 5 6 6 6 6 6 6 6 5 5 5 5 5 5 5 5 5 6 6 5 5 5 5
5 4 4 4 3 3 2 2 1 1 1 0 0 0 0 0 0 1 1 1 2 2 2 3 3 3 3 4 4 5 5 6 6 6 6 6 6 6 5 5 5 5 5 5 5 5 5 5 5 5 5 5 5 5
5 4 4 4 3 2 2 1 1 0 0 -0 -0 -0 0 0 1 1 2 2 2 3 3 3 3 4 4 5 6 6 6 6 6 6 5 5 5 5 5 5 5 5 5 5 5 5 4 4 4 4 4 4 4 4